GW4813 Weather Reports


time (UTC)temp
C
wind
direction
speed
KPH
gust
KPH
rain 1hr
cm
rain 24hr
cm
rain mn
cm
humidity
%
barometer
mb
20260507013013 9 304 0.0 0.0 0.00 1.57 1.07 75 1014.6
20260507012509 10 304 0.0 0.0 0.00 1.63 1.07 76 1014.6
20260507012007 10 304 0.0 0.0 0.00 1.68 1.07 72 1014.6
20260507011522 10 304 0.0 0.0 0.00 1.70 1.07 72 1014.6
20260507011008 10 304 0.0 0.0 0.00 1.75 1.07 68 1014.6
20260507010508 11 304 0.0 0.0 0.00 1.83 1.07 61 1014.6
20260507010027 11 304 0.0 0.0 0.00 1.85 1.07 61 1014.5
20260507005508 11 304 0.0 0.0 0.00 1.91 1.07 59 1014.4
20260507005006 11 304 0.0 0.0 0.00 1.93 1.07 58 1014.4
20260507004535 11 304 0.0 3.2 0.00 1.96 1.07 58 1014.2
20260507004011 11 299 0.0 3.2 0.00 1.98 1.07 58 1014.1
20260507003511 11 300 0.0 0.0 0.00 2.01 1.07 59 1014.1
20260507003026 11 299 0.0 1.6 0.00 2.03 1.07 57 1014.1
20260507002513 11 300 0.0 4.8 0.00 2.08 1.07 56 1014.0
20260507002017 12 312 1.6 4.8 0.00 2.11 1.07 56 1013.9
20260507001528 12 308 1.6 4.8 0.00 2.16 1.07 57 1014.0
20260507001012 12 313 0.0 4.8 0.00 2.18 1.07 57 1013.9
20260507000503 12 311 1.6 4.8 0.00 2.18 1.07 56 1013.8
20260507000007 12 330 3.2 6.4 0.00 2.21 1.07 55 1013.7
20260506235505 12 288 0.0 6.4 0.00 2.24 1.07 57 1013.8
20260506235003 12 349 1.6 6.4 0.00 2.26 1.07 56 1013.7
20260506234506 12 322 1.6 9.7 0.00 2.31 1.07 56 1013.7
20260506234006 12 312 1.6 9.7 0.00 2.31 1.07 56 1013.6
20260506233506 12 316 4.8 9.7 0.00 2.34 1.07 55 1013.6
20260506233009 12 350 4.8 8.0 0.00 2.36 1.07 55 1013.7
20260506232505 12 297 1.6 6.4 0.00 2.36 1.07 56 1013.6
20260506232006 12 331 1.6 8.0 0.00 2.36 1.07 55 1013.7
20260506231516 12 283 3.2 8.0 0.00 2.39 1.07 55 1013.7
20260506231008 12 314 1.6 6.4 0.00 2.41 1.07 56 1013.9
20260506230502 12 311 1.6 6.4 0.00 2.46 1.07 56 1013.9
20260506230003 12 302 1.6 8.0 0.00 2.49 1.07 56 1014.0
20260506225502 13 331 4.8 8.0 0.00 2.51 1.07 53 1013.9
20260506225003 13 333 0.0 6.4 0.00 2.54 1.07 56 1014.1
20260506224506 12 264 1.6 8.0 0.00 2.62 1.07 54 1014.1
20260506224007 12 53 1.6 8.0 0.00 2.64 1.07 54 1014.1
20260506223505 12 305 3.2 8.0 0.00 2.72 1.07 53 1014.1
20260506223010 12 320 3.2 8.0 0.00 2.79 1.07 52 1014.2
20260506222504 12 351 1.6 8.0 0.00 2.79 1.07 53 1014.2
20260506222006 12 328 3.2 8.0 0.00 2.82 1.07 54 1014.2
20260506221512 12 323 3.2 8.0 0.00 2.82 1.07 53 1014.2
20260506221004 12 8 3.2 8.0 0.00 2.82 1.07 53 1014.1
20260506220507 12 271 3.2 6.4 0.00 2.84 1.07 53 1014.1
20260506220031 12 290 1.6 6.4 0.00 2.90 1.07 53 1014.2
20260506215507 12 319 3.2 9.7 0.00 2.92 1.07 52 1014.1
20260506215002 12 300 3.2 11.3 0.00 2.92 1.07 51 1014.1
20260506214505 12 311 4.8 11.3 0.00 2.92 1.07 51 1013.9
20260506214003 12 319 3.2 9.7 0.00 2.92 1.07 51 1013.9
20260506213503 12 319 3.2 9.7 0.00 2.92 1.07 53 1013.9
20260506213005 13 286 3.2 9.7 0.00 2.95 1.07 51 1013.8
20260506212504 13 315 3.2 9.7 0.00 2.95 1.07 52 1013.7
20260506212004 13 327 6.4 12.9 0.00 2.95 1.07 49 1013.7
20260506211509 13 309 4.8 12.9 0.00 2.95 1.07 51 1013.7
20260506211007 13 330 4.8 11.3 0.00 2.95 1.07 53 1013.6
20260506210506 13 270 3.2 9.7 0.00 2.95 1.07 54 1013.7
20260506210016 13 339 4.8 9.7 0.00 2.95 1.07 55 1013.6
20260506205511 13 303 4.8 9.7 0.00 2.97 1.07 54 1013.5
20260506205007 13 322 3.2 9.7 0.00 2.97 1.07 56 1013.6
20260506204522 12 288 3.2 8.0 0.00 3.02 1.07 56 1013.6
20260506204010 13 330 4.8 9.7 0.00 3.05 1.07 55 1013.6
20260506203507 13 320 3.2 9.7 0.00 3.07 1.07 53 1013.6
20260506203004 13 317 4.8 9.7 0.00 3.10 1.07 53 1013.5
20260506202503 13 338 3.2 9.7 0.00 3.12 1.07 56 1013.6
20260506202007 13 323 3.2 12.9 0.00 3.15 1.07 54 1013.6
20260506201506 13 297 4.8 14.5 0.00 3.15 1.07 53 1013.6
20260506201004 13 328 4.8 14.5 0.00 3.17 1.07 52 1013.5
20260506200503 13 318 6.4 11.3 0.00 3.23 1.07 53 1013.4
20260506200012 13 315 4.8 11.3 0.00 3.28 1.07 57 1013.4
20260506195506 13 294 3.2 12.9 0.00 3.30 1.07 55 1013.3
20260506195003 13 335 4.8 12.9 0.00 3.30 1.07 55 1013.3
20260506194516 13 360 4.8 11.3 0.00 3.30 1.07 54 1013.2
20260506194008 13 336 4.8 11.3 0.00 3.30 1.07 56 1013.3
20260506193512 13 52 6.4 11.3 0.00 3.30 1.07 57 1013.3
20260506193020 13 325 4.8 14.5 0.00 3.30 1.07 54 1013.3
20260506192511 12 338 6.4 14.5 0.00 3.30 1.07 54 1013.3
20260506192011 13 345 6.4 11.3 0.00 3.30 1.07 55 1013.4
20260506191506 13 38 4.8 11.3 0.00 3.30 1.07 54 1013.3
20260506191005 13 330 4.8 11.3 0.00 3.30 1.07 54 1013.3
20260506190504 13 335 6.4 11.3 0.00 3.30 1.07 53 1013.3
20260506190012 13 310 3.2 9.7 0.00 3.30 1.07 55 1013.4
20260506185505 13 280 1.6 16.1 0.00 3.30 1.07 52 1013.3
20260506185008 13 314 4.8 16.1 0.00 3.30 1.07 53 1013.3
20260506184516 13 331 6.4 17.7 0.00 3.30 1.07 54 1013.3
20260506184013 13 10 6.4 17.7 0.00 3.30 1.07 53 1013.0
20260506183508 14 57 6.4 14.5 0.00 3.30 1.07 53 1013.0
20260506183020 14 343 4.8 12.9 0.00 3.30 1.07 53 1012.9
20260506182507 13 287 3.2 9.7 0.00 3.30 1.07 53 1013.0
20260506182011 13 309 4.8 14.5 0.00 3.30 1.07 55 1013.2
20260506181522 13 335 6.4 14.5 0.00 3.30 1.07 56 1013.2
20260506181010 13 349 8.0 14.5 0.00 3.30 1.07 54 1013.1
20260506180508 13 327 4.8 11.3 0.00 3.30 1.07 55 1013.3
20260506180026 13 44 4.8 14.5 0.00 3.30 1.07 55 1013.4
20260506175506 13 20 9.7 14.5 0.00 3.30 1.07 53 1013.5
20260506175006 13 306 3.2 11.3 0.00 3.30 1.07 57 1013.4
20260506174510 13 322 6.4 11.3 0.00 3.30 1.07 56 1013.4
20260506174004 13 351 4.8 8.0 0.00 3.30 1.07 55 1013.4
20260506173505 13 338 4.8 20.9 0.00 3.30 1.07 56 1013.4
20260506173016 13 15 6.4 20.9 0.00 3.30 1.07 56 1013.5
20260506172506 13 311 3.2 11.3 0.00 3.30 1.07 60 1013.5
20260506172011 13 341 6.4 11.3 0.00 3.30 1.07 58 1013.5
20260506171522 13 322 4.8 9.7 0.00 3.30 1.07 60 1013.5
20260506171009 13 356 4.8 12.9 0.00 3.30 1.07 58 1013.7
20260506170508 13 304 3.2 12.9 0.00 3.30 1.07 60 1013.8
20260506170024 13 302 4.8 14.5 0.00 3.30 1.07 61 1013.6
20260506165514 13 275 4.8 14.5 0.00 3.30 1.07 62 1013.6
20260506165007 13 339 6.4 11.3 0.00 3.30 1.07 62 1013.5
20260506164527 13 273 4.8 16.1 0.00 3.30 1.07 60 1013.4
20260506164005 12 7 3.2 16.1 0.00 3.30 1.07 62 1013.4
20260506163504 12 301 4.8 14.5 0.00 3.30 1.07 61 1013.5
20260506163010 12 345 4.8 12.9 0.00 3.30 1.07 61 1013.7
20260506162505 12 347 6.4 25.7 0.00 3.30 1.07 60 1013.7
20260506162011 13 297 4.8 25.7 0.00 3.30 1.07 64 1013.7
20260506161518 12 215 3.2 11.3 0.00 3.30 1.07 65 1013.7
20260506161008 12 253 6.4 11.3 0.00 3.30 1.07 66 1013.5
20260506160510 12 316 4.8 9.7 0.00 3.30 1.07 66 1013.5
20260506160020 12 311 3.2 9.7 0.00 3.30 1.07 63 1013.6
20260506155510 12 288 4.8 9.7 0.00 3.30 1.07 64 1013.7
20260506155010 12 341 1.6 11.3 0.00 3.30 1.07 64 1013.7
20260506154528 12 289 1.6 11.3 0.00 3.30 1.07 66 1013.7
20260506154011 12 329 4.8 12.9 0.00 3.30 1.07 64 1013.7
20260506153510 12 269 3.2 12.9 0.00 3.30 1.07 66 1013.6
20260506153025 12 254 3.2 9.7 0.00 3.30 1.07 71 1013.4
20260506152510 11 290 1.6 9.7 0.00 3.30 1.07 72 1013.1
20260506152007 11 336 4.8 11.3 0.00 3.30 1.07 70 1013.0
20260506151514 11 19 3.2 11.3 0.00 3.30 1.07 70 1013.0
20260506151009 11 330 4.8 9.7 0.00 3.30 1.07 75 1013.0
20260506150503 11 295 3.2 8.0 0.00 3.30 1.07 72 1012.9
20260506150003 10 312 3.2 11.3 0.00 3.30 1.07 75 1012.7
20260506145503 10 314 4.8 12.9 0.00 3.30 1.07 74 1012.7
20260506145003 10 40 4.8 12.9 0.00 3.30 1.07 73 1013.0
20260506144502 10 330 6.4 9.7 0.00 3.30 1.07 71 1012.9
20260506144003 10 327 4.8 16.1 0.00 3.30 1.07 74 1012.7
20260506143503 10 43 4.8 16.1 0.00 3.30 1.07 74 1012.5
20260506143006 10 302 4.8 9.7 0.00 3.30 1.07 75 1012.4
20260506142503 9 1 3.2 8.0 0.00 3.30 1.07 77 1012.5
20260506142005 9 322 4.8 8.0 0.00 3.30 1.07 77 1012.7
20260506141508 9 352 1.6 6.4 0.00 3.30 1.07 80 1012.7
20260506141006 8 326 3.2 9.7 0.00 3.30 1.07 80 1012.8
20260506140507 8 347 4.8 11.3 0.00 3.30 1.07 81 1012.7
20260506140009 8 318 4.8 11.3 0.00 3.30 1.07 80 1012.7
20260506135506 8 326 4.8 12.9 0.00 3.30 1.07 82 1012.7
20260506135010 8 323 4.8 12.9 0.00 3.30 1.07 82 1012.6
20260506134504 8 323 4.8 11.3 0.00 3.30 1.07 81 1012.5
20260506134003 8 18 3.2 8.0 0.00 3.30 1.07 83 1012.3
20260506133504 8 337 3.2 8.0 0.00 3.30 1.07 84 1012.1
20260506133004 7 7 3.2 9.7 0.00 3.30 1.07 84 1012.2
20260506132503 7 284 3.2 9.7 0.00 3.30 1.07 85 1012.1
20260506132005 7 319 3.2 9.7 0.00 3.30 1.07 86 1012.2
20260506131508 7 323 3.2 9.7 0.00 3.30 1.07 85 1012.2
20260506131004 7 335 3.2 11.3 0.00 3.30 1.07 86 1012.0
20260506130505 7 314 3.2 11.3 0.00 3.30 1.07 86 1012.0
20260506130015 7 335 1.6 8.0 0.00 3.30 1.07 87 1012.1
20260506125504 7 312 3.2 8.0 0.00 3.30 1.07 86 1012.1
20260506125005 7 307 3.2 4.8 0.00 3.30 1.07 87 1011.5
20260506124511 7 328 3.2 6.4 0.00 3.30 1.07 87 1011.4
20260506124006 7 315 3.2 6.4 0.00 3.30 1.07 87 1011.8
20260506123510 7 322 3.2 6.4 0.00 3.30 1.07 87 1011.7
20260506123015 7 300 0.0 4.8 0.00 3.30 1.07 88 1011.7
20260506122504 7 321 0.0 4.8 0.00 3.30 1.07 89 1011.6
20260506122008 7 312 0.0 6.4 0.00 3.30 1.07 89 1011.5
20260506121506 7 322 1.6 6.4 0.00 3.30 1.07 89 1011.5
20260506121005 7 328 1.6 3.2 0.00 3.30 1.07 89 1011.2
20260506120504 7 309 1.6 4.8 0.00 3.30 1.07 90 1011.0
20260506120022 6 344 1.6 4.8 0.00 3.30 1.07 89 1010.8
20260506115509 6 307 1.6 9.7 0.00 3.30 1.07 90 1010.6
20260506115006 6 14 1.6 9.7 0.00 3.30 1.07 90 1010.6
20260506114513 6 326 3.2 8.0 0.00 3.30 1.07 90 1010.4
20260506114007 6 342 1.6 6.4 0.00 3.30 1.07 91 1010.3
20260506113507 6 320 1.6 4.8 0.00 3.30 1.07 91 1010.4
20260506113015 6 45 0.0 4.8 0.00 3.30 1.07 91 1010.3
20260506112509 6 45 0.0 4.8 0.00 3.30 1.07 91 1010.4
20260506112007 6 312 1.6 4.8 0.00 3.30 1.07 90 1010.5
20260506111517 6 283 1.6 4.8 0.00 3.30 1.07 90 1010.6
20260506111004 6 323 1.6 4.8 0.00 3.30 1.07 90 1010.3
20260506110504 6 323 1.6 4.8 0.00 3.30 1.07 90 1010.1
20260506110008 6 339 3.2 8.0 0.00 3.30 1.07 89 1009.9
20260506105505 6 336 4.8 9.7 0.00 3.30 1.07 89 1010.0
20260506105006 6 345 4.8 9.7 0.00 3.30 1.07 90 1009.9
20260506104510 6 310 3.2 11.3 0.00 3.30 1.07 90 1009.7
20260506104012 6 338 4.8 14.5 0.00 3.30 1.07 91 1009.4
20260506103508 6 22 1.6 14.5 0.00 3.33 1.07 91 1009.4
20260506103018 6 32 4.8 14.5 0.00 3.33 1.07 92 1009.2
20260506102507 6 333 3.2 12.9 0.00 3.35 1.07 92 1009.6
20260506102010 6 329 4.8 12.9 0.00 3.35 1.07 92 1009.8
20260506101518 6 316 1.6 4.8 0.00 3.35 1.07 93 1009.7
20260506101005 6 318 0.0 8.0 0.00 3.35 1.07 93 1009.6
20260506100511 6 315 3.2 8.0 0.00 3.38 1.07 93 1009.5
20260506100016 6 333 3.2 8.0 0.00 3.43 1.07 93 1009.5
20260506095506 6 319 3.2 8.0 0.00 3.43 1.07 94 1009.3
20260506095002 6 306 1.6 4.8 0.00 3.43 1.07 94 1009.3
20260506094506 6 312 0.0 4.8 0.00 3.43 1.07 94 1009.1
20260506094005 6 327 1.6 4.8 0.00 3.43 1.07 93 1009.0
20260506093507 6 352 0.0 4.8 0.00 3.43 1.07 94 1008.6
20260506093014 6 353 1.6 4.8 0.00 3.45 1.07 94 1008.3
20260506092505 6 60 0.0 0.0 0.03 3.45 1.07 94 1008.3
20260506092007 6 360 0.0 6.4 0.03 3.48 1.07 94 1008.8
20260506091519 6 17 0.0 6.4 0.03 3.51 1.07 94 1008.9
20260506091007 6 325 0.0 6.4 0.03 3.56 1.07 94 1008.9
20260506090507 6 312 1.6 6.4 0.05 3.58 1.07 94 1008.8
20260506090023 6 3 1.6 6.4 0.05 3.58 1.07 94 1008.5
20260506085507 6 335 0.0 11.3 0.05 3.58 1.07 94 1008.7
20260506085005 6 23 3.2 11.3 0.08 3.58 1.07 94 1008.8
20260506084532 6 321 1.6 14.5 0.10 3.58 1.07 94 1008.7
20260506084011 6 338 4.8 14.5 0.13 3.58 1.07 94 1008.8
20260506083508 6 88 3.2 12.9 0.15 3.58 1.07 95 1008.8
20260506083012 6 302 6.4 11.3 0.18 3.58 1.07 95 1008.8
20260506082507 6 326 3.2 12.9 0.18 3.56 1.04 95 1008.7
20260506082006 6 25 4.8 12.9 0.18 3.56 1.04 95 1008.7
20260506081517 6 255 3.2 11.3 0.18 3.56 1.04 95 1008.7
20260506081009 6 319 1.6 11.3 0.18 3.56 1.04 95 1008.8
20260506080507 6 326 6.4 11.3 0.18 3.53 1.02 95 1008.8
20260506073508 7 357 4.8 9.7 0.13 3.43 0.91 95 1008.7
20260506073024 7 315 3.2 9.7 0.10 3.40 0.89 95 1008.8
20260506072507 7 349 4.8 8.0 0.08 3.38 0.86 95 1008.6
20260506072014 7 330 4.8 11.3 0.10 3.38 0.86 95 1008.7
20260506071523 7 329 3.2 11.3 0.13 3.38 0.86 95 1008.5
20260506071008 7 3 3.2 11.3 0.18 3.38 0.86 95 1008.3
20260506070507 7 326 3.2 11.3 0.18 3.35 0.84 95 1008.1
20260506062510 7 319 3.2 8.0 0.33 3.30 0.79 95 1008.0
20260506062009 7 359 3.2 8.0 0.33 3.28 0.76 95 1008.0
20260506061527 7 49 3.2 6.4 0.33 3.25 0.74 95 1008.2
20260506061008 7 51 0.0 8.0 0.33 3.20 0.69 95 1008.2
20260506060507 7 36 1.6 8.0 0.36 3.17 0.66 95 1008.5
20260506051007 8 321 4.8 14.5 0.33 2.87 0.36 94 1008.7
20260506051002 8 334 4.8 14.5 0.33 2.87 0.36 94 1008.7
20260506050502 8 319 4.8 12.9 0.30 2.82 0.30 95 1008.6
20260506045006 8 342 1.6 17.7 0.23 2.74 0.23 95 1008.5
20260506044524 8 319 4.8 17.7 0.20 2.72 0.20 95 1008.1
20260506044004 8 337 6.4 17.7 0.20 2.72 0.20 95 1008.1
20260506043510 8 331 4.8 9.7 0.18 2.67 0.18 95 1008.2
20260506043022 8 334 3.2 9.7 0.18 2.67 0.18 96 1008.3
20260506042506 9 326 3.2 8.0 0.13 2.64 0.13 96 1008.4
20260506042008 9 340 3.2 8.0 0.10 2.62 0.10 95 1008.5
20260506041504 9 319 3.2 6.4 0.08 2.59 0.08 95 1008.5
20260506041005 9 323 1.6 4.8 0.03 2.54 0.03 96 1008.3
20260506040504 9 329 1.6 6.4 0.00 2.51 0.00 95 1008.2
20260506040008 9 338 3.2 6.4 0.00 2.51 0.00 95 1008.1
20260506035504 9 350 1.6 6.4 0.03 2.51 2.51 95 1008.0
20260506035004 9 42 1.6 8.0 0.03 2.51 2.51 95 1008.0
20260506034513 9 18 3.2 8.0 0.05 2.51 2.51 95 1007.9
20260506034008 9 60 3.2 14.5 0.08 2.51 2.51 95 1008.0
20260506033507 9 69 4.8 14.5 0.08 2.51 2.51 95 1008.0
20260506033015 9 316 1.6 6.4 0.13 2.51 2.51 95 1008.0
20260506032507 9 54 1.6 6.4 0.15 2.51 2.51 95 1008.0
20260506032008 9 70 0.0 11.3 0.20 2.51 2.51 95 1008.1
20260506031522 9 20 6.4 11.3 0.25 2.51 2.51 95 1008.0
20260506031009 10 37 1.6 9.7 0.30 2.51 2.51 95 1008.3
20260506030510 10 106 3.2 12.9 0.33 2.51 2.51 95 1008.3
20260506030024 10 64 4.8 12.9 0.36 2.51 2.51 95 1008.2
20260506025502 10 43 1.6 9.7 0.33 2.49 2.49 95 1008.5
20260506025004 10 22 3.2 9.7 0.36 2.49 2.49 95 1008.5
20260506024515 10 18 4.8 8.0 0.36 2.46 2.46 95 1008.7
20260506024005 10 331 1.6 8.0 0.33 2.44 2.44 95 1008.9
20260506023504 10 327 1.6 6.4 0.38 2.44 2.44 95 1008.9
20260506023018 10 336 3.2 8.0 0.38 2.39 2.39 95 1008.9
20260506022508 10 25 3.2 8.0 0.41 2.36 2.36 95 1008.9
20260506022008 10 325 1.6 9.7 0.41 2.31 2.31 95 1009.0
20260506021520 10 346 3.2 11.3 0.38 2.26 2.26 95 1009.1
20260506021011 10 352 4.8 11.3 0.38 2.21 2.21 95 1009.1
20260506020512 10 336 1.6 9.7 0.43 2.18 2.18 95 1009.1
20260506020022 10 47 4.8 9.7 0.43 2.16 2.16 95 1008.8
20260506015508 10 323 3.2 9.7 0.48 2.16 2.16 95 1008.7
20260506015007 10 345 1.6 9.7 0.51 2.13 2.13 95 1008.6
20260506014528 10 16 1.6 11.3 0.48 2.11 2.11 95 1008.4
20260506014003 11 298 6.4 11.3 0.51 2.11 2.11 94 1008.2
20260506013506 11 314 1.6 9.7 0.48 2.06 2.06 95 1008.1